Location: Ham Street
(51.0500°N, 0.8500°E)
Time: 17:51:00
(UTC+00:00)

Daily predictions for brighter satellites

Satellite Brightness Start Highest point End
(mag) Time Altitude Azimuth Time Altitude Azimuth Time Altitude Azimuth
CZ-4 R/B 1.4 18:05:47 10° SSE 18:09:35 57° ENE 18:13:28 10° N
H-2A R/B 2.2 18:04:22 10° SSE 18:09:45 63° ENE 18:15:07 10° N
USA 305 3.1 18:05:35 10° W 18:09:52 71° NNW 18:14:09 10° ENE
Gbstr 26 Del rocket 3.2 18:08:20 10° WSW 18:12:35 79° SSE 18:17:51 10° ENE
IRS-1C Rocket 4.1 18:08:16 10° SSE 18:13:32 80° ENE 18:18:50 10° NNW
SL-4 R/B 1.6 18:11:20 10° W 18:14:57 80° N 18:18:25 10° E
Meteor 1-20 Rocket 4.2 18:10:32 10° S 18:15:52 58° E 18:21:16 10° NNE
Cosmos 1302 Rocket 4.0 18:10:51 10° SSW 18:16:00 71° ESE 18:21:14 10° NNE
CSL-04 DEB 4.3 18:14:02 10° NNE 18:17:59 71° ESE 18:21:58 10° S
USA 307 3.1 18:16:54 10° W 18:21:10 68° NNW 18:25:26 10° ENE
FALCON 9 DEB 3.1 18:19:10 10° WNW 18:22:37 86° SSW 18:26:03 10° ESE
ATLAS CENTAUR R/B 2.7 18:22:05 10° SSE 18:24:28 17° ESE 18:26:52 10° ENE
USA 306 3.2 18:20:19 10° W 18:24:35 66° NNW 18:28:50 10° ENE
Cosmos 1354 Rocket 4.2 18:19:36 10° NNW 18:24:45 50° ENE 18:29:50 10° SE
USA 186 3.2 18:25:07 11° ENE 18:25:38 11° ENE 18:26:34 10° NE
Cosmos 44 Rocket 3.7 18:20:50 10° NW 18:26:06 77° SW 18:31:18 10° SSE
FALCON 9 DEB 3.2 18:23:44 10° W 18:26:53 58° N 18:29:48 11° ENE
ERS-2 2.8 18:23:49 10° NNE 18:27:12 34° E 18:30:32 10° SSE
Cosmos 1844 Rocket 2.8 18:22:54 10° NNW 18:28:24 54° NE 18:33:51 10° SE
Cosmos 2084 Rocket 3.6 18:24:16 10° NW 18:28:36 85° SW 18:33:04 10° SE
FALCON 9 DEB 3.2 18:25:40 10° W 18:28:50 60° N 18:31:45 12° ENE
Okean-O 2.6 18:25:02 10° SSE 18:29:26 78° ENE 18:33:54 10° NNW
CSL-04 Rocket 3.8 18:25:31 10° SE 18:30:55 56° ENE 18:36:18 10° N
USA 308 3.2 18:27:30 10° W 18:31:47 64° N 18:35:51 11° ENE
CSL-04 Debris 4.2 18:26:54 10° SSE 18:32:15 61° ENE 18:37:39 10° N
Cosmos 1271 Rocket 3.7 18:29:16 10° NNW 18:32:54 49° W 18:36:32 10° S
Cosmos 1666 4.1 18:32:29 10° SE 18:34:55 17° E 18:37:21 10° NE
Cosmos 1503 Rocket 4.0 18:29:50 10° NNW 18:35:02 67° ENE 18:40:11 10° SE
H-2A R/B 3.6 18:32:16 10° N 18:36:04 37° WNW 18:39:51 10° SW
SKYMED 2 4.1 18:32:55 10° N 18:37:15 65° WNW 18:41:32 10° SSW
HJ-1C 3.3 18:34:02 10° SSE 18:37:19 63° ENE 18:40:37 10° N
MOS 1 Rocket 4.2 18:33:19 10° N 18:38:15 60° WNW 18:43:26 10° SSW
PSLV R/B 3.9 18:34:17 10° NNE 18:38:21 58° ESE 18:42:21 10° S
Cosmos 1844 3.9 18:34:29 10° NNW 18:40:12 56° NE 18:45:50 10° SE
CZ-4B R/B 2.2 18:39:24 10° N 18:42:23 50° WNW 18:45:21 10° SSW
Cosmos 1470 Rocket 3.7 18:38:23 10° S 18:42:44 55° E 18:47:06 10° NNE
Cosmos 2360 Rocket 2.6 18:39:55 10° S 18:45:05 39° ESE 18:50:19 10° NE
Cosmos 2278 Rocket 3.5 18:40:50 10° NNW 18:45:18 23° NE 18:48:36 14° E
Cosmos 1602 3.7 18:42:27 10° S 18:46:21 88° E 18:50:18 10° N
Ariane Rocket 3.9 18:42:05 10° ESE 18:46:27 29° ENE 18:50:49 10° N
Meteor 1-19 Rocket 4.4 18:41:56 10° NNW 18:47:56 85° W 18:53:44 10° S
Meteor 2-4 Rocket 3.8 18:46:40 10° N 18:52:29 67° ENE 18:58:23 10° SSE
Cosmos 1703 Rocket 3.8 18:48:30 10° N 18:52:48 48° ENE 18:57:02 10° SSE
Cosmos 1500 3.2 18:49:48 10° S 18:53:25 50° E 18:57:04 10° NNE
DMSP B5D1-3 4.5 18:48:15 10° NNE 18:53:25 68° ESE 18:58:33 10° S
Cosmos 2333 Rocket 3.3 18:51:13 10° SSE 18:55:29 22° ESE 18:59:46 10° NE
Cosmos 1689 Rocket 1.8 18:52:54 10° NNE 18:55:47 78° ESE 18:58:40 10° S
SL-08 RB Rocket 3.6 18:53:31 10° SSE 18:58:01 80° ENE 19:02:37 10° NNW
Meteor 2-12 Rocket 4.4 18:52:56 10° S 18:58:58 72° E 19:05:04 10° NNE
ERBS 2.6 18:56:41 10° WSW 18:59:58 60° NNW 19:02:19 17° NE
Cosmos 1980 Rocket 3.8 18:56:10 10° WSW 19:01:19 34° NW 19:06:31 10° NNE
Aureole 2 Rocket 3.0 19:01:12 10° NW 19:03:38 39° WSW 19:05:59 10° S
Cosmos 1933 Rocket 3.5 18:59:22 10° S 19:03:38 60° E 19:07:59 10° NNE
Cosmos 1943 Rocket 4.3 19:01:29 10° N 19:03:44 12° NNE 19:05:57 10° NE
Cosmos 2242 Rocket 3.5 19:06:22 10° N 19:10:54 80° ENE 19:15:22 10° SSE
Resurs 01 Rocket 2.9 19:12:41 21° ENE 19:13:05 22° ENE 19:16:27 10° N
Cosmos 2322 Rocket 2.2 19:09:19 10° SSW 19:14:56 83° WNW 19:20:36 10° NNE
Cosmos 1461 4.1 19:10:29 10° WSW 19:15:05 48° NW 19:19:41 10° NE
Abrixas rocket 2.0 19:13:37 10° WSW 19:16:01 44° S 19:16:08 44° SSE
Lacrosse 4 Rocket 3.5 19:13:49 10° SSE 19:14:29 13° SSE 19:14:29 13° SSE
FALCON 9 DEB 3.1 19:16:48 10° WNW 19:19:58 60° N 19:20:47 42° ENE
Helios 1A Rocket 3.8 19:16:32 10° S 19:20:28 49° W 19:24:26 10° NNW
YAOGAN 1 4.4 19:17:28 10° SSW 19:21:22 33° W 19:25:19 10° NNW
SJ-6B 2.8 19:22:30 20° SSE 19:25:16 65° ENE 19:29:18 10° N
COSMOS 2428 3.5 19:20:42 10° SSE 19:32:11 - NE 19:24:51 27° ESE
ASTEX 1 3.7 19:21:44 10° NNE 19:26:25 43° E 19:30:11 15° SSE
GP-B 3.2 19:24:57 10° S 19:29:23 76° W 19:33:51 10° N
Meteor 1-14 Rocket 4.3 19:24:24 10° SSW 19:29:58 77° WNW 19:35:32 10° N
MOS 1 4.3 19:25:33 15° SSE 19:30:13 64° ENE 19:35:51 10° N
Cosmos 2219 Rocket 2.6 19:27:14 10° S 19:32:15 35° ESE 19:37:19 10° NE
FALCON 9 DEB 2.9 19:29:14 10° WNW 19:32:24 65° N 19:32:42 60° NE
Meteor 1-11 Rocket 3.9 19:27:20 10° SSE 19:32:46 48° E 19:38:08 10° NNE
MetOp-A 4.1 19:28:58 10° SSE 19:34:20 87° WSW 19:39:44 10° NNW
OBJECT-B 0.6 19:36:24 69° E 19:36:30 70° ENE 19:39:44 10° N
Cosmos 1992 Rocket 4.5 19:31:48 10° SW 19:37:00 63° WNW 19:42:13 10° NNE
SJ 16-02 1.9 19:35:15 10° N 19:39:23 38° ENE 19:39:34 38° ENE
SL-16 R/B 3.1 19:34:15 10° SW 19:39:44 49° NW 19:45:16 10° NNE
Resurs 1-3 3.7 19:38:47 43° ESE 19:39:47 53° ENE 19:44:05 10° N
Okean 1-7 3.4 19:35:42 10° NNW 19:40:03 64° W 19:44:21 10° S
SeaSat 1 2.4 19:35:13 10° NNE 19:40:12 84° WNW 19:45:08 10° SW
Cosmos 1066 Rocket 4.2 19:36:32 10° N 19:42:13 67° ENE 19:45:41 25° SSE
Meteor 1-13 Rocket 4.3 19:36:39 10° NNW 19:42:39 88° ENE 19:48:31 10° SSE
USA 234 3.4 19:39:54 26° ENE 19:43:32 52° SE 19:49:53 10° SW
Cosmos 1536 4.4 19:46:16 22° NNE 19:46:16 22° NNE 19:47:51 10° NNE
CZ-4 R/B 4.4 19:42:40 10° SW 19:45:00 15° W 19:47:22 10° NW
CZ-2C R/B 3.1 19:42:16 10° N 19:47:44 64° WNW 19:53:02 10° SSW
Cosmos 2369 Rocket 4.2 19:46:25 10° N 19:49:01 13° NNE 19:50:42 12° NE
H-2A R/B 4.5 19:45:12 10° SW 19:49:34 24° W 19:53:58 10° NW
USA 305 3.2 19:45:56 10° WNW 19:50:10 59° N 19:50:56 49° NE
BREEZE-M DEB (TANK) 2.4 19:47:50 10° W 19:50:27 70° S 19:51:09 55° SE
IRS-1A Rocket 4.2 19:46:43 17° SSE 19:51:12 90° W 19:56:48 10° NNW
Cosmos 2322 3.7 19:46:31 10° SSW 19:52:08 61° ESE 19:57:47 10° NE
DMSP B5D2-2 4.1 19:48:19 10° NNE 19:53:35 81° WNW 19:58:47 10° SSW
SL-4 R/B 2.0 19:51:01 10° W 19:54:12 53° SW 19:54:12 53° SW
USA 186 3.5 19:56:42 24° WNW 19:56:42 24° WNW 19:58:23 10° NW
Cosmos 1898 Rocket 4.3 19:53:11 10° NNW 19:57:50 33° NE 19:57:50 33° NE
Cosmos 1869 Rocket 3.4 19:53:33 10° S 19:57:55 89° E 20:02:22 10° N
Gbstr 26 Del rocket 3.4 19:54:55 10° W 19:59:39 83° N 20:00:59 53° E
SL-8 Rocket 4.0 19:54:14 10° SSW 20:00:28 82° W 20:06:43 10° N
USA 307 3.1 19:57:16 10° WNW 20:01:31 60° N 20:01:49 58° NNE
FALCON 9 DEB 4.1 19:59:41 10° WNW 20:01:56 43° WNW 20:01:56 43° WNW
ATLAS CENTAUR R/B 1.4 19:59:19 10° SW 20:02:55 61° NW 20:03:11 59° NNW
Cosmos 1378 3.3 20:00:36 10° NNW 20:03:53 67° NNW 20:03:53 67° NNW
USA 306 3.0 20:00:39 10° WNW 20:04:53 62° N 20:05:03 61° NNE
FALCON 9 DEB 4.2 20:01:43 10° WNW 20:03:59 42° WNW 20:03:59 42° WNW
Cosmos 1666 3.7 20:06:33 10° SSW 20:10:08 44° WNW 20:13:45 10° N
Cosmos 1844 Rocket 4.3 20:07:12 10° NW 20:12:01 31° WSW 20:16:49 10° SSW
USA 308 3.1 20:07:52 10° WNW 20:11:59 62° N 20:11:59 62° N
Cosmos 2366 rocket 4.1 20:09:12 10° SSW 20:15:32 79° W 20:21:56 10° N
NOSS 3-3 (A) 4.4 20:08:45 10° NW 20:16:05 77° NE 20:18:42 47° ESE
NOSS 3-3 (C) 4.4 20:08:52 10° NW 20:16:11 77° NE 20:18:47 47° ESE
Landsat 7 4.3 20:17:05 47° NNE 20:17:05 47° NNE 20:20:52 10° N
SL-08 R/B 4.4 20:11:58 20° S 20:16:33 70° E 20:23:01 10° NNE
Okean 3 4.2 20:14:07 10° NNW 20:18:14 50° W 20:19:31 37° SW
SPOT 3 Rocket 3.4 20:18:38 72° SE 20:19:09 81° ENE 20:24:25 10° NNW
ARIANE 5 R/B 4.2 20:21:38 25° NNE 20:21:38 25° NNE 20:23:54 10° N
Cosmos 2333 4.2 20:17:08 10° SW 20:22:48 79° WNW 20:28:33 10° NNE
Cosmos 2221 Rocket 3.7 20:19:09 10° NNW 20:23:09 71° NW 20:23:09 71° NW
Ariane Rocket 3.8 20:22:15 23° SSW 20:25:12 50° W 20:30:11 10° NNW
SPOT 1/Viking Rocket 4.1 20:29:56 46° NNE 20:29:56 46° NNE 20:33:55 10° N
Cosmos 2360 Rocket 3.2 20:23:38 10° SW 20:29:02 45° NW 20:34:31 10° NNE
Cosmos 2278 Rocket 2.0 20:24:31 10° NNW 20:30:15 84° ENE 20:30:28 81° ESE
Cosmos 1727 Rocket 4.3 20:28:34 10° NNW 20:34:41 65° W 20:37:44 31° SSW
Cosmos 990 Rocket 4.2 20:29:43 10° NNW 20:34:05 58° NNE 20:34:05 58° NNE
Cosmos 2333 Rocket 2.3 20:33:28 10° SW 20:39:10 75° WNW 20:44:56 10° NNE
Cosmos 1821 Rocket 3.8 20:41:55 74° ENE 20:41:55 74° ENE 20:47:45 10° NNE
Cosmos 1000 Rocket 4.4 20:41:39 10° N 20:47:58 84° W 20:48:32 75° SSW
Resurs 01 Rocket 2.6 20:50:14 44° NW 20:50:14 44° NW 20:53:36 10° NNW
Cosmos 1943 Rocket 3.5 20:44:24 10° NNW 20:48:24 29° NNE 20:48:24 29° NNE
MetOp-B 4.3 20:50:11 71° NW 20:50:11 71° NW 20:55:01 10° NNW
Cosmos 2322 Rocket 4.4 20:55:31 10° W 20:59:52 22° NW 21:04:14 10° NNE
Cosmos 2123 Rocket 4.1 20:54:47 10° N 21:00:10 65° NNE 21:00:10 65° NNE
COSMOS 2428 3.7 21:03:41 10° SW 21:14:01 15° NNE 21:14:59 10° NNE
Cosmos 2219 Rocket 3.0 21:10:41 10° SW 21:16:05 48° NW 21:21:33 10° NNE
SJ 16-02 3.4 21:14:04 10° NW 21:16:35 25° WNW 21:16:35 25° WNW
Terra 4.0 21:21:50 20° N 21:21:50 20° N 21:23:19 10° N
USA 234 3.4 21:27:15 70° NW 21:27:15 70° NW 21:33:17 10° WSW
USA 281 3.9 21:34:30 45° N 21:34:30 45° N 21:39:21 10° NNW
Cosmos 2369 Rocket 3.9 21:29:37 10° NNW 21:32:29 26° N 21:32:29 26° N
Cosmos 2278 Rocket 4.5 22:09:46 10° WNW 22:12:20 18° W 22:12:20 18° W
Cosmos 2333 Rocket 4.4 22:20:09 10° W 22:24:27 21° NW 22:28:47 10° NNE
Cosmos 1943 Rocket 4.3 22:28:00 10° NW 22:29:55 22° NW 22:29:55 22° NW
